When you browse on this site, cookies collect data to enhance your experience and personalize the content and advertising you see.
Visit our Privacy Policy to learn more. By continuing to use the site, you agree to this use of cookies and data.
  • In Romania
  • List of Countries
  • For 7 days
  • Water Temperature
  • Satellite Maps
  • Weather Map
  • Weather Widgets
  • user-avatar
    Login

    Hourly Weather Memphis

    Today, 10 December, Monday

    Time Temperature Precipitation Wind Pressure Humidity
    00:00 -3°C° 0 mm 4 mps 761 mmHg 72%
    01:00 -4°C° 0 mm 4 mps 761 mmHg 73%
    02:00 -4°C° 0 mm 4 mps 761 mmHg 74%
    03:00 -4°C° 0 mm 3 mps 761 mmHg 75%
    04:00 -4°C° 0 mm 3 mps 761 mmHg 76%
    05:00 -4°C° 0 mm 3 mps 761 mmHg 76%
    06:00 -5°C° 0 mm 3 mps 762 mmHg 77%
    07:00 -4°C° 0 mm 3 mps 762 mmHg 74%
    08:00 -2°C° 0 mm 3 mps 762 mmHg 71%
    09:00 -2°C° 0 mm 3 mps 763 mmHg 69%
    10:00 0°C° 0 mm 3 mps 763 mmHg 65%
    11:00 +1°C° 0 mm 3 mps 763 mmHg 61%
    12:00 +3°C° 0 mm 3 mps 762 mmHg 57%
    13:00 +3°C° 0 mm 3 mps 762 mmHg 58%
    14:00 +3°C° 0 mm 3 mps 762 mmHg 59%
    15:00 +3°C° 0 mm 3 mps 762 mmHg 61%
    16:00 +2°C° 0 mm 3 mps 762 mmHg 66%
    17:00 +1°C° 0 mm 2 mps 762 mmHg 71%
    18:00 -1°C° 0 mm 2 mps 763 mmHg 76%
    19:00 -1°C° 0 mm 2 mps 763 mmHg 75%
    20:00 0°C° 0 mm 1 mps 763 mmHg 73%
    21:00 0°C° 0 mm 1 mps 763 mmHg 72%
    22:00 0°C° 0 mm 1 mps 763 mmHg 70%
    23:00 -1°C° 0 mm 0 mps 764 mmHg 68%

    Tomorrow, 11 December, Tuesday

    Time Temperature Precipitation Wind Pressure Humidity
    00:00 -1°C° 0 mm 0 mps 764 mmHg 66%
    01:00 0°C° 0 mm 1 mps 764 mmHg 66%
    02:00 0°C° 0 mm 1 mps 764 mmHg 66%
    03:00 0°C° 0 mm 1 mps 764 mmHg 66%
    04:00 0°C° 0 mm 1 mps 764 mmHg 67%
    05:00 0°C° 0 mm 1 mps 764 mmHg 68%
    06:00 0°C° 0 mm 1 mps 764 mmHg 69%
    07:00 -1°C° 0 mm 2 mps 764 mmHg 65%
    08:00 +1°C° 0 mm 2 mps 765 mmHg 60%
    09:00 +2°C° 0 mm 2 mps 765 mmHg 56%
    10:00 +3°C° 0 mm 3 mps 764 mmHg 52%
    11:00 +5°C° 0 mm 3 mps 764 mmHg 48%
    12:00 +8°C° 0 mm 3 mps 763 mmHg 45%
    13:00 +8°C° 0 mm 3 mps 763 mmHg 47%
    14:00 +8°C° 0 mm 3 mps 762 mmHg 49%
    15:00 +8°C° 0 mm 3 mps 762 mmHg 51%
    16:00 +7°C° 0 mm 3 mps 762 mmHg 58%
    17:00 +4°C° 0 mm 3 mps 762 mmHg 64%
    18:00 +2°C° 0 mm 3 mps 762 mmHg 70%
    19:00 +2°C° 0 mm 3 mps 762 mmHg 70%
    20:00 +2°C° 0 mm 3 mps 762 mmHg 71%
    21:00 +2°C° 0 mm 3 mps 761 mmHg 71%
    22:00 +2°C° 0 mm 3 mps 761 mmHg 72%
    23:00 +2°C° 0 mm 3 mps 761 mmHg 72%

    Day after tomorrow, 12 December, Wednesday

    Time Temperature Precipitation Wind Pressure Humidity
    00:00 +1°C° 0 mm 3 mps 761 mmHg 72%
    01:00 +1°C° 0 mm 3 mps 761 mmHg 72%
    02:00 +1°C° 0 mm 3 mps 760 mmHg 72%
    03:00 +1°C° 0 mm 3 mps 760 mmHg 71%
    04:00 +1°C° 0 mm 3 mps 760 mmHg 71%
    05:00 +1°C° 0 mm 3 mps 760 mmHg 70%
    06:00 +1°C° 0 mm 3 mps 760 mmHg 69%
    07:00 +2°C° 0 mm 3 mps 760 mmHg 67%
    08:00 +1°C° 0 mm 4 mps 760 mmHg 65%
    09:00 +3°C° 0 mm 4 mps 760 mmHg 62%
    10:00 +3°C° 0 mm 5 mps 759 mmHg 60%
    11:00 +6°C° 0 mm 5 mps 759 mmHg 57%
    12:00 +7°C° 0 mm 5 mps 758 mmHg 54%
    13:00 +7°C° 0 mm 5 mps 758 mmHg 55%
    14:00 +8°C° 0 mm 5 mps 757 mmHg 55%
    15:00 +8°C° 0 mm 5 mps 756 mmHg 56%
    16:00 +8°C° 0.2 mm 5 mps 756 mmHg 61%
    17:00 +7°C° 0.2 mm 5 mps 756 mmHg 67%
    18:00 +7°C° 0.2 mm 5 mps 755 mmHg 72%
    19:00 +7°C° 1.9 mm 4 mps 755 mmHg 78%
    20:00 +7°C° 1.9 mm 4 mps 755 mmHg 84%
    21:00 +7°C° 1.9 mm 4 mps 755 mmHg 90%
    22:00 +7°C° 2.9 mm 4 mps 755 mmHg 91%
    23:00 +8°C° 2.9 mm 4 mps 754 mmHg 93%

    13 December, Thursday

    Time Temperature Precipitation Wind Pressure Humidity
    00:00 +8°C° 2.9 mm 4 mps 754 mmHg 95%
    01:00 +10°C° 0.4 mm 4 mps 754 mmHg 95%
    02:00 +10°C° 0.4 mm 4 mps 753 mmHg 95%
    03:00 +11°C° 0.4 mm 4 mps 753 mmHg 94%
    04:00 +11°C° 0.2 mm 4 mps 753 mmHg 95%
    05:00 +11°C° 0.2 mm 4 mps 753 mmHg 95%
    06:00 +11°C° 0.2 mm 4 mps 753 mmHg 96%
    07:00 +12°C° 0.2 mm 4 mps 753 mmHg 95%
    08:00 +12°C° 0.2 mm 4 mps 753 mmHg 94%
    09:00 +12°C° 0.2 mm 4 mps 753 mmHg 94%
    10:00 +13°C° 0.2 mm 4 mps 753 mmHg 92%
    11:00 +13°C° 0.2 mm 4 mps 753 mmHg 91%
    12:00 +14°C° 0.2 mm 4 mps 752 mmHg 90%
    13:00 +14°C° 0.4 mm 4 mps 752 mmHg 90%
    14:00 +14°C° 0.4 mm 4 mps 751 mmHg 91%
    15:00 +14°C° 0.4 mm 4 mps 751 mmHg 91%
    16:00 +13°C° 1.1 mm 4 mps 750 mmHg 93%
    17:00 +13°C° 1.1 mm 3 mps 750 mmHg 95%
    18:00 +13°C° 1.1 mm 3 mps 750 mmHg 96%
    19:00 +14°C° 0.8 mm 2 mps 749 mmHg 96%
    20:00 +14°C° 0.8 mm 2 mps 749 mmHg 96%
    21:00 +14°C° 0.8 mm 2 mps 748 mmHg 97%
    22:00 +13°C° 3 mm 2 mps 747 mmHg 96%
    23:00 +12°C° 3 mm 3 mps 746 mmHg 95%

    14 December, Friday

    Time Temperature Precipitation Wind Pressure Humidity
    00:00 +12°C° 3 mm 3 mps 746 mmHg 94%
    01:00 +11°C° 1 mm 4 mps 745 mmHg 93%
    02:00 +11°C° 1 mm 4 mps 744 mmHg 92%
    03:00 +9°C° 1 mm 5 mps 744 mmHg 90%
    04:00 +9°C° 0.8 mm 5 mps 744 mmHg 90%
    05:00 +8°C° 0.8 mm 5 mps 744 mmHg 91%
    06:00 +8°C° 0.8 mm 5 mps 744 mmHg 91%
    07:00 +8°C° 1.4 mm 6 mps 744 mmHg 90%
    08:00 +8°C° 1.4 mm 6 mps 745 mmHg 90%
    09:00 +6°C° 1.4 mm 7 mps 745 mmHg 89%
    10:00 +6°C° 1.1 mm 7 mps 745 mmHg 89%
    11:00 +6°C° 1.1 mm 8 mps 745 mmHg 88%
    12:00 +6°C° 1.1 mm 9 mps 745 mmHg 87%
    13:00 +6°C° 0.8 mm 8 mps 745 mmHg 87%
    14:00 +6°C° 0.8 mm 8 mps 746 mmHg 86%
    15:00 +6°C° 0.8 mm 7 mps 746 mmHg 86%
    16:00 +6°C° 0.2 mm 7 mps 747 mmHg 86%
    17:00 +6°C° 0.2 mm 7 mps 747 mmHg 86%
    18:00 +6°C° 0.2 mm 7 mps 748 mmHg 87%
    19:00 +6°C° 0 mm 7 mps 749 mmHg 87%
    20:00 +6°C° 0 mm 7 mps 749 mmHg 87%
    21:00 +7°C° 0 mm 6 mps 749 mmHg 87%
    22:00 +5°C° 0 mm 6 mps 750 mmHg 87%
    23:00 +5°C° 0 mm 6 mps 750 mmHg 87%

    15 December, Saturday

    Time Temperature Precipitation Wind Pressure Humidity
    00:00 +5°C° 0 mm 6 mps 750 mmHg 87%
    01:00 +5°C° 0.1 mm 6 mps 751 mmHg 87%
    02:00 +4°C° 0.1 mm 6 mps 752 mmHg 86%
    03:00 +4°C° 0.1 mm 6 mps 752 mmHg 86%
    04:00 +5°C° 0 mm 5 mps 753 mmHg 87%
    05:00 +5°C° 0 mm 5 mps 753 mmHg 87%
    06:00 +5°C° 0 mm 5 mps 754 mmHg 87%
    07:00 +5°C° 0 mm 4 mps 754 mmHg 86%
    08:00 +5°C° 0 mm 4 mps 754 mmHg 85%
    09:00 +6°C° 0 mm 4 mps 755 mmHg 85%
    10:00 +6°C° 0 mm 4 mps 755 mmHg 83%
    11:00 +7°C° 0 mm 4 mps 755 mmHg 82%
    12:00 +9°C° 0 mm 3 mps 755 mmHg 81%
    13:00 +9°C° 0 mm 3 mps 755 mmHg 81%
    14:00 +10°C° 0 mm 3 mps 755 mmHg 82%
    15:00 +10°C° 0 mm 3 mps 755 mmHg 82%
    16:00 +9°C° 0 mm 2 mps 755 mmHg 85%
    17:00 +9°C° 0 mm 2 mps 756 mmHg 88%
    18:00 +9°C° 0 mm 1 mps 756 mmHg 90%
    19:00 +9°C° 0 mm 1 mps 757 mmHg 91%
    20:00 +9°C° 0 mm 1 mps 757 mmHg 91%
    21:00 +8°C° 0 mm 1 mps 757 mmHg 92%
    22:00 +8°C° 0 mm 1 mps 757 mmHg 92%
    23:00 +8°C° 0 mm 1 mps 757 mmHg 92%
    Show more